When you browse on this site, cookies collect data to enhance your experience and personalize the content and advertising you see.
Visit our Privacy Policy to learn more. By continuing to use the site, you agree to this use of cookies and data.
  • In Sweden
  • List of Countries
  • For 7 days
  • Water Temperature
  • Satellite Maps
  • Weather Map
  • Weather Widgets
  • user-avatar
    Login

    Hourly Weather Sudimovo

    Today, 23 January, Wednesday

    Time Temperature Precipitation Wind Pressure Humidity
    00:00 -20°C° 0 mm 1 mps 745 mmHg 97%
    01:00 -20°C° 0 mm 1 mps 745 mmHg 97%
    02:00 -19°C° 0 mm 1 mps 745 mmHg 97%
    03:00 -19°C° 0 mm 1 mps 745 mmHg 97%
    04:00 -20°C° 0 mm 1 mps 745 mmHg 96%
    05:00 -20°C° 0 mm 1 mps 745 mmHg 96%
    06:00 -20°C° 0 mm 1 mps 745 mmHg 95%
    07:00 -23°C° 0 mm 2 mps 745 mmHg 95%
    08:00 -23°C° 0 mm 2 mps 745 mmHg 95%
    09:00 -20°C° 0 mm 2 mps 745 mmHg 94%
    10:00 -19°C° 0 mm 2 mps 745 mmHg 93%
    11:00 -17°C° 0 mm 2 mps 745 mmHg 92%
    12:00 -16°C° 0 mm 2 mps 745 mmHg 93%
    13:00 -15°C° 0 mm 2 mps 745 mmHg 94%
    14:00 -15°C° 0 mm 2 mps 744 mmHg 95%
    15:00 -15°C° 0 mm 2 mps 744 mmHg 96%
    16:00 -16°C° 0 mm 2 mps 744 mmHg 97%
    17:00 -17°C° 0 mm 2 mps 744 mmHg 98%
    18:00 -17°C° 0 mm 2 mps 744 mmHg 98%
    19:00 -18°C° 0 mm 2 mps 744 mmHg 98%
    20:00 -18°C° 0 mm 2 mps 743 mmHg 98%
    21:00 -18°C° 0 mm 2 mps 743 mmHg 98%
    22:00 -19°C° 0 mm 2 mps 743 mmHg 98%
    23:00 -19°C° 0 mm 2 mps 743 mmHg 98%

    Tomorrow, 24 January, Thursday

    Time Temperature Precipitation Wind Pressure Humidity
    00:00 -19°C° 0 mm 2 mps 743 mmHg 99%
    01:00 -20°C° 0 mm 2 mps 742 mmHg 99%
    02:00 -20°C° 0 mm 2 mps 742 mmHg 99%
    03:00 -20°C° 0 mm 2 mps 742 mmHg 99%
    04:00 -18°C° 0 mm 1 mps 742 mmHg 99%
    05:00 -18°C° 0 mm 1 mps 741 mmHg 99%
    06:00 -17°C° 0 mm 1 mps 742 mmHg 99%
    07:00 -17°C° 0 mm 1 mps 742 mmHg 98%
    08:00 -16°C° 0 mm 1 mps 742 mmHg 98%
    09:00 -14°C° 0 mm 1 mps 742 mmHg 97%
    10:00 -13°C° 0 mm 0 mps 742 mmHg 95%
    11:00 -11°C° 0 mm 0 mps 742 mmHg 93%
    12:00 -11°C° 0 mm 1 mps 742 mmHg 93%
    13:00 -11°C° 0 mm 1 mps 742 mmHg 94%
    14:00 -10°C° 0 mm 1 mps 742 mmHg 94%
    15:00 -12°C° 0 mm 1 mps 742 mmHg 94%
    16:00 -13°C° 0 mm 1 mps 742 mmHg 95%
    17:00 -15°C° 0 mm 1 mps 742 mmHg 96%
    18:00 -17°C° 0 mm 2 mps 743 mmHg 96%
    19:00 -18°C° 0 mm 2 mps 743 mmHg 96%
    20:00 -18°C° 0 mm 2 mps 743 mmHg 96%
    21:00 -18°C° 0 mm 2 mps 744 mmHg 96%
    22:00 -17°C° 0 mm 2 mps 745 mmHg 96%
    23:00 -16°C° 0 mm 2 mps 745 mmHg 96%

    Day after tomorrow, 25 January, Friday

    Time Temperature Precipitation Wind Pressure Humidity
    00:00 -17°C° 0 mm 2 mps 745 mmHg 97%
    01:00 -17°C° 0 mm 2 mps 746 mmHg 97%
    02:00 -18°C° 0 mm 2 mps 746 mmHg 97%
    03:00 -18°C° 0 mm 2 mps 746 mmHg 98%
    04:00 -19°C° 0 mm 2 mps 746 mmHg 98%
    05:00 -19°C° 0 mm 2 mps 747 mmHg 98%
    06:00 -20°C° 0 mm 2 mps 747 mmHg 98%
    07:00 -21°C° 0 mm 2 mps 747 mmHg 98%
    08:00 -21°C° 0 mm 2 mps 748 mmHg 98%
    09:00 -20°C° 0 mm 2 mps 748 mmHg 95%
    10:00 -18°C° 0 mm 2 mps 748 mmHg 92%
    11:00 -17°C° 0 mm 2 mps 749 mmHg 89%
    12:00 -16°C° 0 mm 2 mps 749 mmHg 90%
    13:00 -16°C° 0 mm 2 mps 749 mmHg 90%
    14:00 -15°C° 0 mm 2 mps 748 mmHg 90%
    15:00 -17°C° 0 mm 2 mps 749 mmHg 91%
    16:00 -18°C° 0 mm 2 mps 749 mmHg 92%
    17:00 -21°C° 0 mm 3 mps 749 mmHg 94%
    18:00 -22°C° 0 mm 3 mps 749 mmHg 93%
    19:00 -22°C° 0 mm 3 mps 749 mmHg 93%
    20:00 -22°C° 0 mm 3 mps 749 mmHg 93%
    21:00 -22°C° 0 mm 3 mps 749 mmHg 93%
    22:00 -22°C° 0 mm 3 mps 748 mmHg 92%
    23:00 -22°C° 0 mm 3 mps 748 mmHg 92%

    26 January, Saturday

    Time Temperature Precipitation Wind Pressure Humidity
    00:00 -23°C° 0 mm 4 mps 748 mmHg 92%
    01:00 -23°C° 0 mm 4 mps 747 mmHg 91%
    02:00 -23°C° 0 mm 4 mps 747 mmHg 91%
    03:00 -23°C° 0 mm 4 mps 746 mmHg 89%
    04:00 -22°C° 0 mm 4 mps 746 mmHg 88%
    05:00 -22°C° 0 mm 4 mps 745 mmHg 87%
    06:00 -21°C° 0.1 mm 5 mps 745 mmHg 88%
    07:00 -21°C° 0.1 mm 5 mps 744 mmHg 89%
    08:00 -20°C° 0.1 mm 5 mps 744 mmHg 90%
    09:00 -20°C° 0.3 mm 5 mps 743 mmHg 91%
    10:00 -19°C° 0.3 mm 5 mps 742 mmHg 92%
    11:00 -18°C° 0.3 mm 5 mps 742 mmHg 94%
    12:00 -18°C° 0.7 mm 5 mps 741 mmHg 94%
    13:00 -17°C° 0.7 mm 5 mps 740 mmHg 94%
    14:00 -16°C° 0.7 mm 4 mps 740 mmHg 95%
    15:00 -16°C° 0.6 mm 4 mps 739 mmHg 95%
    16:00 -15°C° 0.6 mm 4 mps 738 mmHg 95%
    17:00 -15°C° 0.6 mm 4 mps 738 mmHg 95%
    18:00 -15°C° 0.3 mm 4 mps 737 mmHg 95%
    19:00 -13°C° 0.3 mm 3 mps 737 mmHg 95%
    20:00 -13°C° 0.3 mm 3 mps 736 mmHg 95%
    21:00 -13°C° 0.3 mm 3 mps 736 mmHg 95%
    22:00 -10°C° 0.3 mm 2 mps 736 mmHg 96%
    23:00 -10°C° 0.3 mm 2 mps 735 mmHg 96%

    27 January, Sunday

    Time Temperature Precipitation Wind Pressure Humidity
    00:00 -8°C° 0.3 mm 1 mps 735 mmHg 97%
    01:00 -8°C° 0.3 mm 1 mps 735 mmHg 97%
    02:00 -8°C° 0.3 mm 1 mps 734 mmHg 97%
    03:00 -8°C° 0.1 mm 1 mps 734 mmHg 97%
    04:00 -8°C° 0.1 mm 0 mps 734 mmHg 97%
    05:00 -8°C° 0.1 mm 0 mps 734 mmHg 97%
    06:00 -9°C° 0 mm 0 mps 734 mmHg 97%
    07:00 -9°C° 0 mm 1 mps 734 mmHg 97%
    08:00 -10°C° 0 mm 1 mps 734 mmHg 97%
    09:00 -8°C° 0 mm 1 mps 734 mmHg 96%
    10:00 -7°C° 0 mm 1 mps 735 mmHg 95%
    11:00 -6°C° 0 mm 1 mps 735 mmHg 95%
    12:00 -4°C° 0 mm 1 mps 735 mmHg 95%
    13:00 -3°C° 0 mm 1 mps 735 mmHg 95%
    14:00 -3°C° 0 mm 1 mps 735 mmHg 95%
    15:00 -5°C° 0 mm 2 mps 736 mmHg 96%
    16:00 -5°C° 0 mm 2 mps 736 mmHg 96%
    17:00 -5°C° 0 mm 2 mps 736 mmHg 97%
    18:00 -5°C° 0 mm 2 mps 736 mmHg 97%
    19:00 -4°C° 0 mm 2 mps 737 mmHg 97%
    20:00 -4°C° 0 mm 2 mps 737 mmHg 97%
    21:00 -4°C° 0 mm 2 mps 737 mmHg 97%
    22:00 -4°C° 0 mm 2 mps 737 mmHg 97%
    23:00 -4°C° 0 mm 2 mps 738 mmHg 97%

    28 January, Monday

    Time Temperature Precipitation Wind Pressure Humidity
    00:00 -3°C° 0 mm 2 mps 738 mmHg 96%
    01:00 -3°C° 0 mm 2 mps 738 mmHg 96%
    02:00 -3°C° 0 mm 2 mps 738 mmHg 96%
    03:00 -3°C° 0 mm 2 mps 738 mmHg 96%
    04:00 -2°C° 0 mm 2 mps 738 mmHg 97%
    05:00 -2°C° 0 mm 2 mps 739 mmHg 97%
    06:00 -2°C° 0 mm 2 mps 739 mmHg 97%
    07:00 -2°C° 0 mm 2 mps 739 mmHg 97%
    08:00 -2°C° 0 mm 2 mps 740 mmHg 97%
    09:00 -1°C° 0.1 mm 2 mps 740 mmHg 98%
    10:00 -1°C° 0.1 mm 2 mps 740 mmHg 99%
    11:00 -1°C° 0.1 mm 2 mps 741 mmHg 99%
    12:00 -1°C° 0.1 mm 2 mps 741 mmHg 99%
    13:00 -1°C° 0.1 mm 2 mps 741 mmHg 99%
    14:00 +1°C° 0.1 mm 2 mps 741 mmHg 100%
    15:00 -1°C° 0 mm 2 mps 741 mmHg 99%
    16:00 -1°C° 0 mm 2 mps 742 mmHg 98%
    17:00 -1°C° 0 mm 2 mps 742 mmHg 98%
    18:00 -1°C° 0 mm 2 mps 742 mmHg 97%
    19:00 -1°C° 0 mm 2 mps 742 mmHg 97%
    20:00 -2°C° 0 mm 3 mps 743 mmHg 96%
    21:00 -2°C° 0 mm 3 mps 743 mmHg 96%
    22:00 -2°C° 0 mm 3 mps 743 mmHg 96%
    23:00 -4°C° 0 mm 3 mps 743 mmHg 96%
    Show more